Find Starlink 32351

NORAD ID: 61529 Int'l Des: 2024-183 Owner: SPXS Country: US Constellation: starlink operational
LEOCIRCULAR

Live Position

Loading 3D Globe...

About Starlink 32351

Description loading...

Upcoming Passes

Passes for default location (London). Set your location on the main map for personalized predictions.

Altitude History

Loading altitude history...

Two-Line Element Set

1 61529U 24183W 26109.90606914 -.00000923 00000-0 -19065-4 0 9995
2 61529 53.1603 308.1182 0001040 67.9123 292.1988 15.30186900 86005
Epoch: Apr 19, 2026 • Age: 24 hours

Current Status

Altitude 487.1 km
Velocity 7.62 km/s
Sub-Earth Point -35.14°S, 27.63°W
Launch Date Oct 15, 2024
Age 1.5 years
Type internet

Technical Details

Classification Payload
Mass 730.00 kg
Dry Mass 700.00 kg
Total Mass 730.00 kg
Length 0.30 m
Diameter 4.10 m
Span 29.00 m
Shape Box + pan
Manufacturer SPXS
Bus Type Starlink V2M
Phase Status In Orbit
Owner/State SPXS/US

Most Searched